Wind_Speed
24 24 25 25 26 22 19 18 14 14 17 15 14 14 16 19 22 25 26 28 24 22 21 20 20 21 20 17 18 21 20 22 24 26 28 29 29 25 29 32 30 32 33 34 35 40 41
22 24 24 24 23 25 25 23 19 21 22 20 18 19 17 17 19 22 21 17 17 16 17 19 17 17 18 20 19 20 25 28 28 28 30 28 33 35 38 38 39 41 43 44 46 45 46
30 26 26 25 26 25 23 25 25 28 29 28 26 25 23 19 20 17 18 18 19 19 19 18 19 21 23 21 24 22 25 29 28 31 33 35 36 36 39 38 36 36 36 42 47 48 47
30 34 27 32 32 33 32 28 27 34 32 36 32 30 28 27 27 25 24 25 25 25 22 22 23 25 30 31 29 28 28 29 32 33 34 36 35 34 37 41 40 38 32 37 43 43 40
30 38 37 36 33 33 38 35 32 34 33 36 38 36 32 33 34 33 32 31 30 28 25 26 27 30 34 37 39 39 38 36 37 38 40 40 38 38 43 46 40 39 37 41 45 46 42
33 36 34 33 35 39 39 40 38 35 37 37 40 40 40 37 37 37 35 36 33 34 34 36 40 39 39 40 42 45 44 42 45 50 50 53 52 51 52 50 45 47 47 46 47 53 47
33 35 36 42 43 43 40 40 41 39 36 37 34 41 40 42 41 41 40 40 42 39 45 48 48 50 52 51 51 50 49 53 56 54 53 50 50 59 64 56 52 53 55 56 57 58 56
36 39 39 42 45 46 49 41 40 46 36 35 31 28 38 38 39 44 49 51 48 51 58 56 57 58 59 57 50 53 57 57 59 59 57 56 51 59 58 59 61 62 60 61 65 64 62
40 41 43 46 49 54 44 39 42 45 42 35 32 29 30 31 38 43 47 50 55 54 57 60 60 60 59 59 59 63 62 64 62 62 61 60 60 60 61 64 66 66 64 68 67 69 69
46 48 52 51 54 58 47 46 43 44 39 38 33 31 30 32 32 34 39 44 48 49 51 51 57 61 62 61 62 64 67 65 63 63 64 64 68 66 66 67 72 71 75 75 74 75 73
49 52 55 54 57 65 50 49 47 51 41 36 36 33 36 36 39 38 38 39 41 44 43 47 51 53 57 60 61 63 66 67 69 71 72 73 74 75 76 77 76 76 78 79 79 78 76
51 54 55 58 59 66 54 51 51 47 46 39 33 36 39 39 42 46 46 47 49 51 53 55 58 59 61 64 66 68 70 71 74 75 75 79 78 78 81 84 85 85 86 85 85 85 81
54 55 58 61 65 63 57 59 54 52 48 45 41 39 41 47 50 53 56 57 59 61 63 63 67 69 72 75 78 82 83 82 85 85 83 83 83 83 84 87 89 90 89 93 93 90 88
52 56 59 64 67 67 62 62 58 56 54 53 54 54 56 58 60 62 64 67 69 70 73 74 77 79 81 82 85 89 89 90 89 91 95 93 93 92 90 93 94 98 103 102 99 97 98
55 59 64 69 70 69 69 70 67 67 69 67 74 70 68 70 72 74 76 76 77 79 82 84 86 89 91 95 98 97 97 99 95 100 106 102 96 98 99 103 107 105 105 104 105 104 104
57 65 70 73 75 79 78 76 77 77 75 74 76 75 75 76 77 80 83 84 87 90 94 97 100 101 102 104 104 108 106 104 106 108 108 107 109 107 108 108 108 107 107 108 110 113 112
63 70 74 79 82 84 87 84 83 83 82 82 82 82 82 83 88 91 92 93 96 100 104 107 111 113 111 111 112 111 111 115 114 111 113 116 118 115 111 114 114 114 113 112 115 114 113
69 74 80 82 85 89 88 87 89 89 88 87 91 90 95 97 99 101 104 107 111 114 116 121 116 116 117 117 119 117 114 122 120 119 118 118 122 117 115 118 118 116 113 114 117 115 115
76 81 84 86 87 90 89 92 94 96 99 98 97 100 105 109 110 112 120 119 119 117 120 121 121 122 122 121 122 117 119 118 120 123 123 122 123 120 117 116 117 116 113 114 116 117 117
80 80 85 90 91 93 93 96 98 103 105 111 113 118 121 122 125 125 127 126 126 126 126 128 126 126 126 125 122 121 122 124 122 120 121 123 123 120 118 120 116 115 115 115 118 120 121
84 87 90 94 96 98 100 103 107 112 114 120 123 128 132 127 127 128 125 127 128 126 129 127 127 127 125 124 123 126 126 123 120 119 119 123 124 123 120 120 118 119 117 117 116 117 121
88 89 95 97 100 104 106 111 118 119 124 129 134 139 142 134 129 129 124 127 128 127 128 123 118 113 114 114 117 113 118 116 115 118 117 118 121 118 116 113 110 109 104 105 107 108 108
93 96 97 104 107 110 114 122 125 130 133 136 140 143 137 134 132 129 124 121 114 115 114 111 105 100 102 102 104 104 107 104 108 110 108 109 111 111 109 108 105 100 99 100 100 100 99
97 99 104 109 114 118 124 125 131 137 143 141 142 142 130 120 115 116 115 111 104 98 99 99 97 95 96 96 94 98 99 99 100 102 101 100 104 104 103 103 102 96 96 96 98 97 95
101 104 109 116 122 129 129 134 141 145 146 149 145 130 113 107 101 98 96 93 92 88 84 82 82 79 80 81 81 81 84 86 88 90 91 88 91 94 95 96 94 92 92 93 93 93 91
107 112 120 125 126 134 138 142 151 150 147 148 127 110 102 95 89 84 80 79 77 74 71 71 70 68 66 68 68 68 68 71 74 73 77 78 78 80 84 86 87 86 85 86 86 85 86
112 118 125 128 132 137 146 148 153 153 148 136 113 102 93 87 84 78 74 73 72 69 66 65 65 64 62 61 60 59 60 63 62 58 63 68 70 71 72 75 78 75 77 80 80 79 81
120 127 130 131 139 146 152 152 155 151 145 114 108 98 90 84 80 77 74 69 65 63 60 58 56 54 54 54 52 52 51 52 53 53 55 58 60 62 66 67 66 68 69 70 72 73 75
132 132 135 135 145 152 157 162 158 148 125 110 100 91 86 79 76 74 69 66 62 60 57 54 50 49 48 47 46 46 47 47 47 48 51 49 53 55 58 59 59 59 61 62 64 65 67
Wind_Direction
21 15 9 2 356 349 339 331 326 325 325 320 318 303 276 264 257 257 259 265 264 264 263 261 263 267 267 268 275 274 275 272 268 274 278 283 284 288 294 296 298 299 305 307 309 312 315
8 10 3 6 3 350 341 317 307 295 295 295 298 300 289 279 264 259 255 245 254 257 264 263 267 272 270 272 270 267 272 279 281 278 278 279 276 285 287 291 295 295 294 297 299 303 306
354 356 360 359 354 345 336 321 317 300 289 292 280 283 279 280 272 263 248 248 255 266 266 271 272 272 278 272 275 270 272 275 276 275 277 280 282 282 285 289 290 292 296 296 295 297 300
356 350 354 354 354 356 350 331 314 315 295 281 280 272 267 265 265 263 254 256 264 266 267 276 279 275 280 280 274 273 270 273 274 274 276 279 283 283 283 283 282 287 290 295 295 295 295
355 354 345 336 345 349 347 343 327 317 308 284 273 270 267 261 263 262 255 256 256 262 271 274 278 280 283 282 279 274 274 280 280 277 277 278 281 281 282 278 279 280 288 291 293 294 290
347 349 344 337 331 331 331 341 338 320 323 310 275 269 267 267 268 262 258 252 251 257 264 272 278 284 286 281 280 277 276 279 283 280 275 277 280 281 281 281 282 280 284 287 289 290 293
342 344 344 341 338 323 335 343 344 333 321 324 296 271 273 268 266 264 267 265 263 263 272 276 278 283 284 284 283 278 281 275 282 282 276 278 276 277 276 279 285 284 280 283 283 287 290
334 336 338 337 338 330 324 335 337 342 324 321 313 294 279 279 277 272 268 272 268 267 276 274 278 282 283 284 279 277 281 280 281 279 278 278 280 279 278 278 280 283 282 281 282 283 287
330 329 329 331 333 336 320 318 326 329 331 315 313 305 293 286 282 280 278 278 274 274 274 278 281 281 283 281 278 278 278 278 278 277 277 278 278 277 276 277 276 280 284 281 281 281 284
325 325 326 327 331 331 321 324 321 330 324 319 304 304 304 299 293 290 286 286 282 278 275 277 278 281 283 281 280 278 279 280 278 278 278 278 278 277 277 279 280 282 281 282 280 280 280
321 325 327 325 326 327 321 319 318 324 322 313 309 295 295 295 296 295 292 290 290 289 285 279 279 281 282 282 282 282 281 279 278 279 281 281 279 279 279 279 281 281 281 281 281 279 278
319 320 323 321 321 323 324 317 317 318 321 318 306 302 296 292 292 292 289 287 284 283 279 278 278 279 281 282 281 281 279 279 279 279 279 279 279 278 277 278 280 281 280 281 281 281 281
317 318 318 317 319 320 317 323 323 318 317 316 310 306 299 295 294 291 288 286 284 283 281 281 283 285 286 286 287 288 288 286 285 283 282 282 282 279 278 277 278 280 281 281 282 283 284
314 316 312 314 316 317 318 320 324 326 322 317 311 309 306 303 301 299 295 291 287 285 284 284 283 283 285 282 283 283 284 284 282 282 283 284 285 283 280 281 281 283 284 283 282 280 280
311 310 307 310 311 312 315 317 320 319 319 318 319 310 306 304 303 300 300 298 294 291 290 287 285 284 284 283 282 284 284 284 283 283 283 280 281 281 279 280 281 282 283 279 280 281 279
308 305 305 306 311 311 312 313 315 316 316 315 314 311 306 303 300 297 295 294 293 292 291 290 288 288 288 284 281 281 281 281 280 282 281 281 281 281 278 277 280 278 280 279 280 282 279
303 302 303 307 308 309 313 313 314 314 312 312 312 309 306 303 300 297 296 293 293 292 291 290 289 288 286 284 283 282 282 282 280 280 278 277 277 277 275 274 279 279 280 280 279 279 279
298 302 306 306 307 309 311 312 313 311 312 313 311 310 307 306 302 300 298 295 293 291 290 288 289 288 286 284 281 281 280 279 279 276 275 275 273 273 275 275 277 277 277 277 276 276 274
302 304 304 306 308 309 309 311 313 315 314 313 310 309 308 308 305 303 300 297 294 292 290 289 288 287 286 285 283 281 279 277 276 276 275 276 276 274 272 273 274 273 271 272 272 273 272
303 305 306 308 308 310 313 315 316 314 312 314 314 313 311 307 305 302 299 298 296 294 292 290 288 286 284 283 279 278 276 275 274 273 274 276 276 274 273 272 271 270 268 267 268 268 268
304 306 307 309 311 313 314 313 313 313 316 315 313 310 310 309 305 301 301 300 295 292 289 287 286 284 282 280 279 278 276 274 272 270 271 273 272 270 270 270 271 270 269 268 269 268 268
307 307 308 310 312 313 314 313 314 317 314 314 315 313 312 311 306 302 299 298 295 292 290 290 288 284 282 281 279 276 276 276 273 271 271 272 273 272 272 272 272 271 272 272 271 271 271
306 307 310 311 314 313 315 316 318 316 318 318 319 317 311 309 306 303 300 297 295 293 291 290 288 286 283 280 279 277 276 274 272 272 271 271 271 271 271 272 272 272 272 271 271 270 269
306 311 313 313 313 315 317 320 323 321 322 319 316 314 311 307 303 301 300 298 296 293 290 288 286 285 282 281 279 276 275 274 272 272 272 271 271 272 272 272 272 272 271 270 269 269 271
311 313 312 314 314 318 321 320 320 322 324 322 317 313 309 306 303 302 301 298 297 296 292 290 287 285 282 282 280 276 275 274 273 273 273 272 271 271 271 271 271 271 269 268 269 268 269
313 316 315 316 320 319 320 323 325 326 324 322 317 313 310 310 309 307 305 304 303 301 299 296 293 289 286 284 282 279 276 273 272 273 274 273 272 269 269 269 269 269 269 268 267 267 268
315 314 316 319 321 323 323 323 326 326 325 322 317 315 315 316 314 312 311 309 309 306 302 299 297 295 292 289 286 284 280 278 278 276 273 271 269 269 267 267 268 268 266 266 267 266 266
315 315 319 318 320 323 323 326 325 329 323 321 320 319 320 319 316 316 315 314 312 309 304 301 298 296 293 291 288 285 282 280 278 274 271 270 271 271 270 269 268 267 266 266 266 266 265
318 321 320 319 319 322 326 324 324 325 322 320 320 321 320 319 319 318 317 316 316 315 312 307 303 299 297 295 292 288 284 281 278 276 275 273 271 269 270 270 271 269 267 266 265 265 264
Height
10775 10771 10769 10767 10764 10762 10760 10759 10756 10754 10752 10750 10747 10745 10742 10740 10738 10736 10735 10735 10734 10732 10731 10730 10728 10727 10726 10725 10723 10721 10719 10718 10716 10714 10713 10711 10708 10707 10703 10701 10699 10695 10690 10688 10683 10680 10678
10773 10771 10769 10766 10763 10760 10758 10756 10753 10751 10748 10746 10744 10743 10740 10738 10736 10734 10732 10732 10730 10729 10727 10725 10723 10722 10720 10718 10717 10715 10713 10711 10709 10707 10705 10703 10701 10700 10696 10693 10691 10688 10683 10679 10675 10673 10670
10773 10770 10767 10764 10761 10758 10755 10752 10749 10747 10743 10741 10739 10737 10735 10733 10731 10730 10729 10727 10725 10723 10721 10719 10718 10716 10714 10712 10710 10709 10707 10704 10702 10700 10697 10695 10693 10691 10688 10683 10681 10679 10676 10670 10665 10663 10663
10770 10768 10765 10762 10758 10754 10751 10747 10743 10739 10735 10733 10731 10730 10729 10727 10725 10725 10723 10722 10720 10717 10715 10714 10712 10711 10708 10706 10704 10702 10699 10697 10695 10692 10689 10687 10685 10682 10677 10673 10673 10670 10668 10662 10655 10654 10652
10768 10765 10762 10759 10755 10750 10746 10741 10736 10731 10727 10723 10722 10721 10720 10719 10717 10716 10715 10714 10712 10710 10709 10707 10705 10704 10700 10698 10695 10693 10691 10688 10686 10683 10680 10677 10675 10672 10666 10662 10663 10659 10659 10652 10647 10640 10642
10765 10762 10759 10755 10751 10747 10741 10736 10729 10723 10719 10714 10710 10710 10710 10711 10709 10707 10706 10706 10704 10702 10700 10699 10696 10694 10691 10689 10686 10682 10680 10677 10675 10672 10668 10666 10664 10662 10652 10650 10652 10649 10646 10642 10638 10629 10630
10762 10758 10755 10751 10747 10742 10737 10730 10724 10718 10712 10707 10701 10701 10700 10701 10700 10700 10698 10697 10696 10693 10689 10689 10687 10682 10679 10677 10674 10671 10668 10665 10662 10658 10654 10653 10652 10646 10637 10639 10637 10635 10633 10630 10626 10620 10619
10757 10753 10749 10745 10740 10736 10731 10724 10717 10712 10706 10701 10697 10693 10693 10693 10692 10690 10689 10687 10686 10684 10679 10676 10675 10670 10664 10664 10660 10656 10653 10650 10646 10642 10638 10638 10639 10628 10627 10624 10623 10620 10618 10617 10611 10606 10606
10751 10747 10742 10738 10733 10728 10723 10717 10711 10704 10699 10694 10691 10686 10684 10682 10681 10681 10677 10674 10671 10670 10669 10661 10658 10655 10651 10648 10647 10642 10638 10633 10631 10626 10623 10622 10619 10616 10610 10607 10603 10602 10602 10596 10596 10592 10589
10744 10740 10735 10730 10726 10721 10716 10710 10704 10698 10690 10686 10683 10679 10676 10673 10672 10669 10666 10662 10658 10655 10656 10651 10645 10639 10635 10633 10629 10625 10620 10616 10613 10610 10607 10606 10598 10598 10594 10591 10585 10587 10580 10578 10575 10572 10573
10737 10732 10727 10722 10718 10712 10706 10702 10697 10690 10683 10676 10673 10670 10666 10664 10661 10658 10654 10651 10647 10643 10641 10636 10631 10626 10621 10615 10612 10609 10603 10599 10594 10592 10589 10586 10583 10578 10574 10567 10566 10565 10559 10555 10552 10551 10552
10729 10724 10719 10714 10709 10704 10698 10692 10687 10680 10674 10668 10664 10661 10656 10653 10650 10645 10640 10636 10631 10626 10623 10619 10614 10609 10603 10598 10593 10589 10583 10579 10571 10569 10567 10560 10559 10556 10551 10545 10540 10540 10536 10531 10529 10526 10531
10720 10714 10709 10704 10699 10694 10689 10683 10675 10670 10665 10659 10654 10651 10646 10640 10635 10630 10624 10619 10614 10608 10603 10601 10593 10588 10583 10575 10570 10564 10560 10557 10548 10543 10542 10540 10535 10532 10524 10518 10513 10511 10507 10502 10502 10499 10502
10709 10705 10699 10693 10688 10683 10677 10671 10665 10659 10654 10648 10640 10636 10632 10626 10620 10614 10607 10601 10594 10588 10581 10578 10570 10564 10559 10551 10546 10539 10535 10532 10524 10516 10511 10512 10511 10503 10502 10488 10485 10484 10478 10476 10468 10468 10469
10698 10693 10687 10680 10675 10669 10665 10658 10652 10647 10640 10634 10624 10618 10615 10608 10601 10592 10585 10580 10569 10561 10557 10548 10541 10535 10533 10524 10511 10509 10506 10502 10496 10487 10476 10474 10481 10475 10470 10464 10457 10456 10449 10443 10434 10438 10434
10687 10682 10674 10667 10660 10654 10648 10642 10636 10629 10624 10620 10612 10601 10593 10587 10578 10570 10561 10554 10540 10531 10524 10516 10508 10501 10497 10489 10479 10473 10471 10470 10460 10454 10442 10438 10436 10442 10437 10432 10428 10421 10420 10413 10404 10403 10401
10673 10666 10660 10653 10645 10637 10631 10624 10618 10611 10606 10601 10594 10586 10574 10565 10553 10541 10533 10524 10511 10499 10488 10476 10471 10460 10454 10447 10440 10433 10434 10427 10422 10417 10408 10402 10400 10407 10399 10396 10388 10387 10387 10382 10373 10370 10366
10658 10652 10644 10636 10628 10621 10613 10606 10596 10587 10580 10574 10569 10560 10548 10539 10524 10512 10500 10488 10476 10462 10442 10430 10425 10417 10410 10403 10400 10392 10393 10383 10379 10373 10367 10362 10356 10364 10360 10355 10351 10348 10348 10342 10334 10336 10329
10644 10636 10627 10620 10611 10601 10593 10583 10573 10562 10551 10546 10537 10527 10514 10502 10486 10470 10453 10443 10428 10414 10396 10385 10376 10368 10363 10358 10342 10348 10345 10341 10329 10326 10317 10314 10310 10315 10319 10315 10312 10309 10305 10300 10295 10294 10292
10627 10618 10609 10601 10592 10581 10570 10559 10549 10537 10523 10512 10496 10484 10473 10458 10440 10419 10399 10388 10375 10361 10345 10332 10330 10317 10310 10302 10296 10294 10296 10290 10284 10282 10276 10264 10265 10267 10268 10262 10270 10270 10265 10260 10255 10253 10249
10610 10600 10591 10580 10570 10560 10548 10536 10524 10510 10493 10477 10462 10444 10425 10412 10395 10372 10354 10338 10321 10312 10293 10284 10283 10265 10258 10248 10248 10243 10236 10238 10239 10235 10234 10221 10218 10218 10224 10218 10222 10221 10221 10220 10222 10219 10210
10591 10582 10571 10559 10547 10535 10523 10506 10492 10479 10466 10445 10420 10394 10368 10357 10340 10321 10308 10289 10269 10255 10238 10234 10224 10218 10211 10205 10194 10203 10186 10192 10196 10189 10186 10183 10175 10178 10180 10180 10183 10183 10188 10185 10183 10181 10180
10573 10562 10549 10537 10524 10511 10497 10482 10465 10443 10423 10396 10367 10353 10324 10311 10281 10264 10251 10237 10232 10211 10195 10185 10180 10177 10169 10164 10158 10155 10150 10157 10150 10144 10149 10148 10144 10140 10143 10141 10145 10152 10155 10149 10147 10146 10145
10552 10540 10528 10514 10500 10485 10471 10453 10432 10408 10382 10355 10333 10310 10286 10270 10239 10218 10205 10191 10185 10178 10161 10148 10141 10137 10129 10125 10125 10117 10115 10114 10112 10109 10107 10114 10109 10108 10108 10108 10109 10121 10119 10116 10113 10113 10114
10530 10518 10504 10490 10474 10457 10440 10423 10400 10375 10347 10318 10292 10267 10245 10231 10211 10193 10174 10158 10146 10134 10125 10119 10109 10106 10098 10093 10090 10087 10083 10082 10079 10075 10074 10081 10079 10076 10074 10076 10080 10087 10086 10083 10083 10084 10086
10509 10494 10480 10465 10445 10431 10413 10388 10364 10337 10306 10277 10251 10228 10208 10195 10177 10163 10148 10131 10118 10109 10100 10088 10079 10075 10073 10065 10062 10058 10056 10053 10051 10053 10050 10049 10050 10048 10046 10046 10049 10052 10054 10053 10054 10061 10059
10485 10471 10455 10438 10421 10402 10380 10355 10328 10301 10278 10240 10221 10200 10180 10165 10148 10136 10123 10109 10096 10083 10075 10065 10056 10050 10046 10041 10036 10034 10030 10027 10027 10032 10027 10021 10019 10020 10022 10021 10022 10027 10025 10024 10028 10033 10030
10462 10447 10430 10411 10392 10368 10344 10318 10294 10262 10241 10214 10192 10171 10154 10140 10125 10112 10099 10088 10076 10064 10053 10046 10039 10032 10025 10020 10017 10012 10010 10006 10005 10005 10003 10000 9998 9997 9995 9996 10000 9999 10002 10002 10002 10003 10004
10440 10420 10403 10381 10357 10336 10309 10281 10259 10230 10208 10189 10170 10151 10131 10119 10108 10095 10083 10071 10059 10047 10036 10028 10021 10013 10008 10004 9999 9995 9991 9988 9987 9985 9982 9983 9978 9978 9976 9974 9976 9976 9976 9977 9979 9980 9981